Dallas/Ft Worth, TX

7:37 PM CST on November 20, 2019 (GMT -0600)
Dallas-Fort Worth International

Weather History for KDFW - September, 2019

Change the Weather History Date:

Sunday, September 1, 2019

  Actual Average Record
Temperature  
Mean Temperature 83 °F 83 °F  
Max Temperature 95 °F 93 °F 109 °F (2000)
Min Temperature 71 °F 73 °F 59 °F (1915)
Degree Days  
Heating Degree Days 0 0  
Month to date heating degree days 0 0  
Since 1 July heating degree days 0 0  
Cooling Degree Days 18 18  
Month to date cooling degree days 18 18  
Year to date cooling degree days 2220 2200  
Growing Degree Days 33 (Base 50)    
Moisture  
Dew Point 68 °F    
Average Humidity 63    
Maximum Humidity 90    
Minimum Humidity 40    
Precipitation  
Precipitation 0.00 in 0.10 in 1.98 in (1986)
Month to date precipitation 0.00 0.10  
Year to date precipitation 27.13 24.21  
Sea Level Pressure  
Sea Level Pressure 30.00 in    
Wind  
Wind Speed 2 mph ()    
Max Wind Speed 12 mph    
Max Gust Speed 15 mph    
Visibility 10.0 miles    
Events      
T = Trace of Precipitation, MM = Missing Value Source: Averaged Metar Reports

Daily Weather History Graph

Daily Weather History Graph

Search for Another Location

Airport or City:

Astronomy

Sep. 01, 2019 Rise Set
Actual Time 7:02 AM CDT 7:53 PM CDT
Civil Twilight 6:37 AM CDT 8:18 PM CDT
Nautical Twilight 6:07 AM CDT 8:48 PM CDT
Astronomical Twilight 5:37 AM CDT 9:18 PM CDT
Moon 9:27 AM CDT (9/1) 9:49 PM CDT (9/1)
Length of Visible Light 13h 40m
Length of Day
12h 50m
Waxing Crescent, 8% of the Moon is Illuminated
Sep 1
Waxing Crescent
Sep 5
First Quarter
Sep 13
Full
Sep 21
Last Quarter
Sep 28
New

Hourly Weather History & Observations

Time (CDT) Temp. Heat Index Dew Point Humidity Pressure Visibility Wind Dir Wind Speed Gust Speed Precip Events Conditions
12:53 AM 75.0 °F - 66.9 °F 76% 30.01 in 10.0 mi Calm Calm - N/A   Partly Cloudy
1:53 AM 75.0 °F - 66.9 °F 76% 30.01 in 10.0 mi Calm Calm - N/A   Partly Cloudy
2:53 AM 73.9 °F - 69.1 °F 85% 30.01 in 10.0 mi NE 3.5 mph - N/A   Partly Cloudy
3:53 AM 71.1 °F - 68.0 °F 90% 30.01 in 10.0 mi NE 3.5 mph - N/A   Partly Cloudy
4:53 AM 73.9 °F - 68.0 °F 82% 30.01 in 10.0 mi Calm Calm - N/A   Clear
5:53 AM 73.9 °F - 68.0 °F 82% 30.02 in 10.0 mi NNW 3.5 mph - N/A   Clear
6:53 AM 73.0 °F - 68.0 °F 84% 30.03 in 10.0 mi Calm Calm - N/A   Partly Cloudy
7:53 AM 75.0 °F - 70.0 °F 84% 30.05 in 10.0 mi Calm Calm - N/A   Partly Cloudy
8:53 AM 78.1 °F - 72.0 °F 81% 30.06 in 10.0 mi ENE 3.5 mph - N/A   Partly Cloudy
9:53 AM 82.0 °F 86.7 °F 72.0 °F 71% 30.07 in 10.0 mi Calm Calm - N/A   Partly Cloudy
10:53 AM 84.9 °F 90.1 °F 71.1 °F 63% 30.06 in 10.0 mi Variable 3.5 mph - N/A   Partly Cloudy
11:53 AM 88.0 °F 92.9 °F 70.0 °F 55% 30.05 in 10.0 mi Calm Calm - N/A   Partly Cloudy
12:53 PM 89.1 °F 93.7 °F 69.1 °F 52% 30.03 in 10.0 mi Calm Calm - N/A   Scattered Clouds
1:53 PM 93.0 °F 96.4 °F 66.9 °F 42% 30.02 in 10.0 mi ESE 4.6 mph - N/A   Scattered Clouds
2:53 PM 93.9 °F 98.6 °F 68.0 °F 43% 29.99 in 10.0 mi Calm Calm - N/A   Scattered Clouds
3:53 PM 93.0 °F 95.9 °F 66.0 °F 41% 29.96 in 10.0 mi Calm Calm - N/A   Scattered Clouds
4:53 PM 93.9 °F 97.5 °F 66.9 °F 41% 29.95 in 10.0 mi East 6.9 mph - N/A   Scattered Clouds
5:53 PM 93.9 °F 97.0 °F 66.0 °F 40% 29.94 in 10.0 mi East 10.4 mph - N/A   Partly Cloudy
6:53 PM 91.9 °F 94.5 °F 66.0 °F 42% 29.94 in 10.0 mi ESE 6.9 mph - N/A   Partly Cloudy
7:53 PM 89.1 °F 91.3 °F 66.0 °F 46% 29.95 in 10.0 mi East 8.1 mph - N/A   Partly Cloudy
8:53 PM 86.0 °F 88.8 °F 66.9 °F 53% 29.96 in 10.0 mi East 6.9 mph - N/A   Clear
9:53 PM 84.9 °F 88.2 °F 68.0 °F 57% 29.98 in 10.0 mi East 5.8 mph - N/A   Clear
10:53 PM 82.9 °F 85.8 °F 68.0 °F 60% 29.99 in 10.0 mi ESE 3.5 mph - N/A   Clear
11:53 PM 82.9 °F 86.5 °F 69.1 °F 63% 30.00 in 10.0 mi Calm Calm - N/A   Clear